Weather History for PAOH - October, 2013

Change the Weather History Date:

Tuesday, October 22, 2013

  Actual Average Record
Temperature  
Mean Temperature 38 °F -  
Max Temperature 45 °F 43 °F 51 °F (2014)
Min Temperature 32 °F 36 °F 26 °F (2004)
Degree Days  
Heating Degree Days 26    
Moisture  
Dew Point 37 °F    
Average Humidity 97    
Maximum Humidity 100    
Minimum Humidity 80    
Precipitation  
Precipitation 0.05 in - - ()
Sea Level Pressure  
Sea Level Pressure 30.21 in    
Wind  
Wind Speed 1 mph (East)    
Max Wind Speed 8 mph    
Max Gust Speed -    
Visibility 6 miles    
Events Fog , Rain    
Averages and records for this station are not official NWS values.
T = Trace of Precipitation, MM = Missing Value Source: NWS Daily Summary

Daily Weather History Graph

Daily Weather History Graph

Search for Another Location

Airport or City:

Trip Planner

Search our weather history database for the weather conditions in past years. The results will help you decide how hot, cold, wet, or windy it might be!

Date:

Astronomy

Oct. 22, 2013 Rise Set
Actual Time 7:54 AM AKDT 5:37 PM AKDT
Civil Twilight 7:13 AM AKDT 6:17 PM AKDT
Nautical Twilight 6:27 AM AKDT 7:03 PM AKDT
Astronomical Twilight 5:41 AM AKDT 7:49 PM AKDT
Moon 7:47 PM AKDT (10/22) 12:05 PM AKDT (10/22)
Length of Visible Light 11h 04m
Length of Day
9h 43m
Waning Gibbous, 86% of the Moon is Illuminated
Oct 22
Waning Gibbous
Oct 26
Last Quarter
Nov 3
New
Nov 9
First Quarter
Nov 17
Full

Hourly Weather History & Observations

Time (AKDT) Temp. Windchill Dew Point Humidity Pressure Visibility Wind Dir Wind Speed Gust Speed Precip Events Conditions
12:11 AM 33.8 °F 30.8 °F 33.8 °F 100% 30.25 in 3.0 mi East 3.5 mph - N/A   Partly Cloudy
12:21 AM 32.0 °F - 32.0 °F 100% 30.24 in 1.8 mi Calm Calm - N/A   Mostly Cloudy
12:29 AM 32.0 °F - 32.0 °F 100% 30.25 in 3.0 mi Calm Calm - N/A   Scattered Clouds
12:44 AM 32.0 °F - 32.0 °F 100% 30.25 in 9.0 mi Calm Calm - N/A   Mostly Cloudy
12:56 AM 32.0 °F - 32.0 °F 100% 30.26 in 10.0 mi Calm Calm - N/A   Overcast
1:39 AM 33.8 °F - 33.8 °F 100% 30.25 in 10.0 mi Calm Calm - N/A   Overcast
1:56 AM 34.0 °F - 34.0 °F 100% 30.26 in 10.0 mi Calm Calm - N/A   Overcast
2:56 AM 34.9 °F - 34.9 °F 100% 30.27 in 10.0 mi Calm Calm - N/A   Overcast
3:56 AM 35.6 °F - 35.6 °F 100% 30.25 in 10.0 mi Calm Calm - N/A   Overcast
4:56 AM 34.9 °F - 34.9 °F 100% 30.25 in 10.0 mi Calm Calm - N/A   Overcast
5:41 AM 35.6 °F - 35.6 °F 100% 30.25 in 10.0 mi Calm Calm - N/A   Overcast
5:56 AM 34.9 °F - 34.9 °F 100% 30.25 in 8.0 mi Calm Calm - N/A   Overcast
6:07 AM 35.6 °F 31.7 °F 35.6 °F 100% 30.24 in 1.8 mi East 4.6 mph - N/A   Overcast
6:10 AM 35.6 °F 32.8 °F 35.6 °F 100% 30.24 in 1.0 mi East 3.5 mph - N/A   Overcast
6:15 AM 35.6 °F 32.8 °F 35.6 °F 100% 30.25 in 0.5 mi East 3.5 mph - N/A Fog Fog
6:56 AM 34.9 °F - 34.9 °F 100% 30.25 in 0.5 mi Calm Calm - N/A Fog Fog
7:56 AM 34.9 °F - 34.9 °F 100% 30.24 in 0.5 mi Calm Calm - N/A Fog Fog
8:11 AM 35.6 °F - 35.6 °F 100% 30.24 in 1.0 mi Calm Calm - N/A   Overcast
8:14 AM 35.6 °F - 35.6 °F 100% 30.24 in 1.5 mi Calm Calm - N/A   Overcast
8:23 AM 35.6 °F - 35.6 °F 100% 30.24 in 3.0 mi Calm Calm - N/A   Overcast
8:56 AM 34.9 °F - 34.9 °F 100% 30.25 in 0.5 mi Calm Calm - N/A Fog Fog
9:19 AM 35.6 °F - 35.6 °F 100% 30.25 in 0.2 mi Calm Calm - N/A Fog Fog
9:56 AM 37.9 °F - 37.9 °F 100% 30.24 in 0.2 mi Calm Calm - N/A Fog Fog
10:07 AM 37.4 °F - 37.4 °F 100% 30.24 in 0.8 mi Calm Calm - N/A   Overcast
10:15 AM 37.4 °F - 37.4 °F 100% 30.24 in 0.2 mi Calm Calm - N/A Fog Fog
10:35 AM 39.2 °F - 39.2 °F 100% 30.23 in 0.8 mi Calm Calm - N/A   Overcast
10:37 AM 39.2 °F - 39.2 °F 100% 30.23 in 1.2 mi Calm Calm - N/A   Overcast
10:39 AM 39.2 °F - 39.2 °F 100% 30.23 in 2.0 mi Calm Calm - N/A   Overcast
10:56 AM 39.9 °F - 39.9 °F 100% 30.24 in 6.0 mi Calm Calm - N/A   Overcast
11:28 AM 42.8 °F - 42.8 °F 100% 30.23 in 10.0 mi Calm Calm - N/A   Partly Cloudy
11:56 AM 43.9 °F - 41.9 °F 93% 30.23 in 10.0 mi Calm Calm - N/A   Overcast
12:37 PM 44.6 °F 42.2 °F 41.0 °F 87% 30.21 in 10.0 mi East 4.6 mph - N/A   Partly Cloudy
12:56 PM 45.0 °F 41.2 °F 41.0 °F 86% 30.22 in 10.0 mi ESE 6.9 mph - N/A   Clear
1:56 PM 45.9 °F 44.6 °F 41.0 °F 83% 30.19 in 10.0 mi East 3.5 mph - N/A   Clear
2:56 PM 45.9 °F 42.9 °F 41.0 °F 83% 30.19 in 10.0 mi ESE 5.8 mph - N/A   Clear
3:56 PM 45.0 °F - 39.9 °F 82% 30.17 in 10.0 mi Calm Calm - N/A   Clear
4:56 PM 43.9 °F - 41.9 °F 93% 30.15 in 10.0 mi Calm Calm - N/A   Clear
5:56 PM 41.9 °F - 41.0 °F 97% 30.13 in 10.0 mi Calm Calm - N/A   Clear
6:56 PM 41.0 °F - 41.0 °F 100% 30.12 in 10.0 mi Calm Calm - N/A   Clear
7:56 PM 41.0 °F - 41.0 °F 100% 30.11 in 10.0 mi Calm Calm - N/A   Mostly Cloudy
8:56 PM 43.9 °F 39.3 °F 37.9 °F 80% 30.10 in 9.0 mi ENE 8.1 mph - 0.00 in Rain Light Rain
9:56 PM 42.8 °F 40.1 °F 39.2 °F 87% 30.07 in 6.0 mi ENE 4.6 mph - N/A Rain Light Rain
10:56 PM 41.9 °F 40.0 °F 41.0 °F 97% 30.07 in 9.0 mi North 3.5 mph - 0.02 in Rain Light Rain
11:56 PM 41.9 °F 38.2 °F 41.0 °F 97% 30.05 in 7.0 mi ENE 5.8 mph - 0.03 in Rain Light Rain